Probability
0 0 0 0 0 0 0 3 3 3 0 0 0 0 0 0 0 0 0 0 0 0 0 0 0 0 0 0 0 0 0 0 0 0 0 0 0 0 0 0 0 0 0
0 0 0 0 0 0 0 0 3 3 3 0 0 0 0 0 0 0 0 0 0 0 0 0 0 0 0 0 0 0 0 0 0 0 0 0 0 0 0 0 0 0 0
0 0 0 0 0 0 0 0 0 0 3 3 0 0 0 0 0 0 0 0 0 0 0 0 0 0 0 0 0 0 0 0 0 0 0 0 0 0 0 0 0 0 0
0 0 0 0 0 0 0 0 0 0 0 3 0 0 0 0 0 0 0 0 0 0 0 0 0 0 0 0 0 0 0 0 0 0 0 0 0 0 0 0 0 0 0
0 0 0 0 0 0 0 0 0 0 0 0 0 0 0 0 0 0 0 0 0 0 0 0 0 0 0 0 0 0 0 0 0 0 0 0 0 0 0 0 0 0 0
0 0 0 0 0 0 0 0 0 0 0 0 0 0 0 0 0 0 0 0 0 0 0 0 0 0 0 0 0 0 0 0 0 0 0 0 0 0 0 0 0 0 0
0 0 0 0 0 0 0 0 0 0 0 0 0 0 0 0 0 0 0 0 0 0 0 0 0 0 0 0 0 0 0 0 0 0 0 0 0 0 0 0 0 0 0
0 0 0 0 0 0 0 0 0 0 0 0 0 0 0 0 0 0 0 0 0 0 0 0 0 0 0 0 0 0 0 0 0 0 0 0 0 0 0 0 0 0 0
0 0 0 0 0 0 0 0 0 0 0 0 0 0 0 0 0 0 0 0 0 0 0 0 0 0 0 0 0 0 0 0 0 0 0 0 0 0 0 0 0 0 0
0 0 0 0 0 0 0 0 0 0 0 0 0 0 0 0 0 0 0 0 0 0 0 0 0 0 0 0 0 0 0 0 0 0 0 0 0 0 0 0 0 0 0
0 0 0 0 0 0 0 0 0 0 0 0 0 0 0 0 0 0 0 0 0 0 0 0 0 0 0 0 0 0 0 0 0 0 0 0 0 0 0 0 0 0 0
0 0 0 0 0 0 0 0 0 0 0 0 0 0 0 0 0 0 0 0 0 0 0 0 0 0 0 0 0 0 0 0 0 0 0 0 0 0 0 0 0 0 0
0 0 0 0 0 0 0 0 0 0 0 0 0 0 0 0 0 0 0 0 0 0 0 0 0 0 0 0 0 0 0 0 0 0 0 0 0 0 0 0 0 0 0
0 0 0 0 0 0 0 0 0 0 0 0 0 0 0 0 0 0 0 0 0 0 0 0 0 0 0 0 0 0 0 0 0 0 0 0 0 0 0 0 0 0 0
0 0 0 0 0 0 0 0 0 0 0 0 0 0 0 0 0 0 0 0 0 0 0 0 0 0 0 0 0 0 0 0 0 0 0 0 0 0 0 0 0 0 0
0 0 0 0 0 0 0 0 0 0 0 0 0 0 0 0 0 0 0 0 0 0 0 0 0 0 0 0 0 0 0 0 0 0 0 0 0 0 0 0 0 0 0
0 0 0 0 0 0 0 0 0 0 0 0 0 0 0 0 0 0 0 0 0 0 0 0 0 0 0 0 0 0 0 0 0 0 0 0 0 0 0 0 0 0 0
0 0 0 0 0 0 0 0 0 0 0 0 0 0 0 0 0 0 0 0 0 0 0 0 0 0 0 0 0 0 0 0 0 0 0 0 0 0 0 0 0 0 0
0 0 0 0 0 0 0 0 0 0 0 0 0 0 0 0 0 0 0 0 0 0 0 0 0 0 0 0 0 0 0 0 0 0 0 0 0 0 0 0 0 0 0
0 0 0 0 0 0 0 0 0 0 0 0 0 0 0 0 0 0 0 0 0 0 0 0 0 0 0 0 0 0 0 0 0 0 0 0 0 0 0 0 0 0 0
0 0 0 0 0 0 0 0 0 0 0 0 0 0 0 0 0 0 0 0 0 0 0 0 0 0 0 0 0 0 0 0 0 0 0 0 0 0 0 0 0 0 0
0 0 0 0 0 0 0 0 0 0 0 0 0 0 0 0 0 0 0 0 0 0 0 0 0 0 0 0 0 0 0 0 0 0 0 0 0 0 0 0 0 0 0
0 0 0 0 0 0 0 0 0 0 0 0 0 0 0 0 0 0 0 0 0 0 0 0 0 0 0 0 0 0 0 0 0 0 0 0 0 0 0 0 0 0 0
0 0 0 0 0 0 0 0 0 0 0 0 0 0 0 0 0 0 0 0 0 0 0 0 0 0 0 0 0 0 0 0 0 0 0 0 0 0 0 0 0 0 0
0 0 0 0 0 0 0 0 0 0 0 0 0 0 0 0 0 0 0 0 0 0 0 0 0 0 0 0 0 0 0 0 0 0 0 0 0 0 0 0 0 0 0
0 0 0 0 0 0 0 0 0 0 0 0 0 0 0 0 0 0 0 0 0 0 0 0 0 0 0 0 0 0 0 0 0 0 0 0 0 0 0 0 0 0 0
Height
5686 5685 5685 5685 5685 5684 5684 5683 5683 5683 5683 5683 5683 5684 5684 5685 5686 5687 5689 5690 5691 5692 5694 5696 5698 5700 5702 5705 5707 5710 5713 5715 5718 5721 5723 5726 5729 5732 5735 5738 5741 5744 5747
5674 5674 5674 5673 5673 5673 5672 5671 5671 5670 5670 5670 5671 5672 5672 5673 5674 5675 5677 5678 5679 5680 5682 5684 5686 5688 5690 5693 5696 5698 5701 5704 5706 5709 5712 5715 5718 5720 5723 5726 5729 5733 5736
5662 5662 5662 5661 5661 5660 5660 5659 5659 5658 5658 5658 5659 5659 5660 5661 5662 5664 5665 5666 5667 5668 5670 5672 5674 5676 5678 5681 5683 5686 5689 5692 5694 5697 5700 5703 5706 5709 5712 5715 5718 5722 5725
5650 5649 5649 5649 5648 5647 5647 5647 5646 5646 5646 5646 5646 5647 5648 5649 5650 5652 5652 5653 5654 5655 5657 5658 5661 5663 5665 5668 5671 5674 5677 5679 5682 5684 5687 5691 5694 5697 5701 5704 5707 5710 5713
5637 5636 5636 5636 5635 5634 5634 5634 5633 5633 5633 5634 5634 5635 5636 5637 5638 5639 5640 5641 5642 5643 5644 5646 5648 5650 5652 5655 5658 5661 5664 5667 5669 5672 5675 5678 5682 5685 5688 5692 5695 5698 5702
5624 5624 5623 5622 5622 5621 5621 5621 5620 5620 5621 5621 5621 5622 5623 5624 5625 5626 5627 5628 5629 5630 5631 5633 5634 5637 5639 5642 5645 5647 5650 5653 5656 5659 5662 5666 5669 5672 5675 5679 5683 5686 5690
5611 5611 5610 5609 5609 5608 5608 5607 5607 5607 5608 5608 5608 5609 5610 5611 5612 5613 5614 5615 5616 5618 5619 5620 5621 5624 5626 5628 5631 5634 5637 5640 5643 5646 5649 5652 5655 5659 5662 5666 5669 5673 5677
5598 5598 5597 5596 5595 5595 5594 5594 5594 5594 5594 5595 5595 5596 5597 5598 5599 5600 5601 5602 5603 5605 5605 5607 5608 5610 5612 5615 5617 5620 5623 5626 5629 5632 5635 5639 5642 5645 5648 5652 5655 5659 5664
5586 5585 5584 5583 5582 5581 5581 5581 5581 5581 5581 5581 5582 5583 5584 5585 5586 5587 5588 5589 5590 5591 5592 5593 5595 5596 5599 5601 5603 5606 5609 5612 5615 5618 5621 5624 5627 5630 5633 5637 5641 5645 5649
5573 5572 5571 5570 5569 5569 5568 5568 5567 5568 5568 5568 5569 5569 5570 5571 5572 5573 5574 5575 5576 5577 5578 5579 5580 5582 5584 5587 5589 5592 5595 5598 5600 5603 5606 5609 5612 5615 5618 5622 5626 5629 5634
5561 5560 5559 5558 5557 5556 5555 5555 5555 5555 5554 5555 5555 5556 5556 5557 5558 5559 5560 5561 5562 5563 5564 5565 5566 5568 5570 5572 5575 5578 5580 5583 5586 5588 5591 5594 5596 5600 5603 5606 5610 5614 5618
5549 5548 5547 5546 5544 5544 5543 5542 5542 5542 5541 5541 5542 5542 5543 5543 5544 5545 5546 5547 5547 5548 5549 5551 5552 5553 5555 5558 5560 5563 5565 5568 5570 5573 5576 5578 5581 5584 5587 5591 5595 5599 5603
5538 5536 5535 5534 5533 5532 5531 5530 5529 5529 5528 5528 5528 5528 5528 5529 5530 5531 5532 5532 5533 5534 5535 5536 5537 5539 5540 5542 5545 5547 5550 5552 5555 5557 5560 5562 5565 5568 5572 5575 5579 5583 5587
5527 5526 5524 5523 5521 5520 5519 5518 5517 5516 5515 5515 5515 5514 5515 5515 5516 5516 5517 5517 5518 5519 5520 5521 5522 5524 5525 5527 5529 5531 5533 5536 5538 5541 5543 5546 5549 5552 5556 5560 5563 5567 5572
5517 5515 5514 5512 5510 5508 5507 5506 5504 5503 5502 5502 5501 5501 5501 5501 5501 5502 5502 5502 5503 5504 5505 5506 5507 5509 5510 5512 5514 5516 5518 5520 5522 5524 5527 5530 5533 5536 5540 5544 5548 5552 5556
5507 5505 5503 5501 5499 5497 5496 5494 5493 5491 5490 5489 5489 5488 5488 5487 5487 5487 5487 5488 5488 5489 5490 5491 5492 5494 5495 5497 5498 5500 5502 5504 5506 5508 5511 5514 5517 5521 5524 5528 5532 5536 5541
5497 5495 5493 5491 5489 5487 5485 5483 5481 5479 5478 5477 5476 5475 5474 5474 5473 5473 5473 5473 5473 5474 5474 5476 5477 5479 5480 5482 5483 5484 5486 5488 5490 5492 5495 5498 5502 5505 5509 5513 5516 5521 5525
5487 5484 5482 5480 5478 5476 5473 5471 5469 5468 5466 5465 5463 5462 5461 5461 5460 5459 5459 5459 5459 5460 5460 5461 5462 5463 5465 5466 5467 5468 5470 5473 5475 5477 5480 5483 5486 5489 5493 5497 5501 5505 5510
5476 5474 5472 5469 5467 5465 5462 5460 5458 5456 5455 5453 5451 5450 5449 5448 5447 5446 5446 5445 5445 5445 5445 5446 5447 5448 5449 5450 5452 5453 5455 5458 5460 5463 5465 5468 5471 5475 5478 5482 5487 5491 5495
5466 5464 5461 5459 5456 5454 5451 5449 5447 5445 5443 5441 5439 5437 5436 5434 5434 5433 5432 5431 5431 5431 5431 5431 5432 5434 5435 5436 5437 5438 5441 5444 5446 5449 5451 5454 5457 5459 5462 5466 5471 5475 5480
5457 5454 5451 5448 5446 5443 5440 5438 5435 5433 5431 5428 5426 5425 5423 5421 5420 5419 5418 5418 5417 5417 5417 5418 5419 5420 5421 5422 5423 5424 5426 5429 5431 5434 5437 5440 5443 5445 5448 5452 5456 5461 5465
5447 5444 5441 5438 5435 5432 5430 5427 5424 5422 5419 5417 5414 5412 5410 5408 5407 5405 5405 5405 5404 5404 5404 5404 5405 5406 5407 5408 5409 5411 5412 5414 5417 5420 5423 5426 5428 5431 5435 5438 5442 5447 5450
5437 5434 5431 5429 5425 5422 5419 5416 5414 5410 5408 5405 5402 5400 5398 5396 5394 5393 5392 5392 5391 5391 5391 5392 5392 5393 5394 5395 5396 5398 5399 5401 5404 5407 5409 5412 5414 5417 5421 5425 5428 5432 5436
5428 5425 5422 5419 5415 5412 5409 5406 5403 5400 5397 5394 5391 5388 5386 5384 5382 5381 5380 5379 5379 5379 5379 5379 5380 5380 5381 5382 5383 5385 5387 5389 5391 5393 5396 5398 5401 5404 5407 5411 5415 5418 5423
5418 5415 5412 5409 5406 5403 5400 5396 5393 5390 5387 5384 5380 5378 5375 5373 5371 5370 5368 5367 5367 5366 5367 5367 5367 5368 5369 5370 5371 5372 5374 5376 5378 5380 5383 5385 5388 5392 5395 5398 5402 5405 5409
5410 5407 5404 5400 5397 5394 5391 5387 5384 5380 5377 5374 5371 5368 5365 5363 5361 5359 5358 5356 5356 5355 5355 5355 5356 5357 5358 5358 5359 5360 5362 5364 5365 5367 5370 5373 5376 5379 5382 5385 5389 5393 5396
Wind_Speed
43 43 43 43 43 43 43 44 44 44 45 45 45 45 46 46 46 46 47 47 47 48 48 48 48 47 48 48 47 46 47 46 46 46 46 46 46 47 47 47 47 47 45
43 43 43 43 43 43 43 44 44 44 44 45 45 45 46 46 46 46 46 46 46 48 49 49 49 49 49 49 49 48 48 47 47 47 48 48 47 47 47 47 47 47 47
43 43 43 43 43 44 44 45 45 45 45 45 46 46 46 47 47 47 46 47 47 48 49 50 49 49 49 50 50 50 50 49 49 49 48 48 48 47 48 48 48 48 47
43 43 43 44 44 45 45 46 46 46 46 46 46 47 47 47 48 48 47 48 48 48 49 50 50 50 51 51 52 52 51 51 50 50 49 49 49 49 49 49 49 49 49
43 43 44 44 45 45 46 46 47 47 47 47 47 47 47 48 48 48 48 48 48 48 50 50 51 51 52 52 53 53 53 52 51 51 51 51 50 50 50 50 50 50 50
42 43 44 45 45 46 46 46 47 47 47 47 48 47 48 48 48 48 48 48 48 49 50 50 51 51 51 52 53 54 53 53 53 53 53 52 52 51 51 52 52 51 51
41 42 42 44 45 45 46 46 47 47 48 48 48 48 48 49 49 49 48 49 49 49 50 50 51 52 52 52 53 54 54 54 55 55 55 54 53 53 53 53 54 53 52
41 42 42 43 44 44 45 45 46 47 48 48 48 48 48 49 50 49 49 49 49 50 50 51 52 53 53 54 54 54 54 55 55 55 56 56 55 55 55 55 55 55 55
40 41 42 42 42 42 43 44 45 46 47 47 48 48 49 49 49 50 50 50 50 50 51 51 52 53 54 54 55 54 54 55 55 56 56 56 57 57 56 57 57 56 56
39 40 40 41 41 42 43 44 45 46 46 47 48 49 49 49 49 50 51 51 51 52 52 51 52 53 54 55 56 56 56 56 56 57 57 57 57 58 59 59 59 59 58
39 39 39 40 41 42 43 44 45 46 47 48 49 49 50 50 50 51 51 51 52 52 52 53 53 53 54 55 57 57 58 58 58 58 58 58 59 59 59 59 59 60 60
37 37 37 38 40 41 42 43 44 45 46 46 47 49 50 51 51 51 51 51 52 52 53 53 54 54 55 56 57 58 59 59 60 60 59 59 59 60 59 59 60 60 60
36 35 36 37 38 40 41 42 43 44 45 45 46 47 48 50 51 51 51 52 52 52 53 53 54 54 55 55 57 58 59 60 61 61 61 60 60 60 60 60 60 60 60
36 36 36 36 37 38 40 41 42 43 44 45 46 47 47 48 49 50 51 52 52 52 53 53 53 53 54 54 55 56 58 59 60 61 61 61 61 61 61 60 60 60 60
34 35 36 36 37 37 38 39 40 42 43 44 44 45 46 47 48 49 50 51 52 53 53 53 53 53 53 52 52 54 56 58 58 59 59 60 60 61 61 61 61 61 61
33 33 34 35 35 36 37 38 39 41 42 43 43 44 45 46 47 47 48 49 50 51 52 52 53 53 53 54 54 54 54 56 57 57 58 59 59 60 60 61 61 61 61
33 34 34 34 35 36 37 38 39 40 41 41 42 43 43 43 44 45 45 46 48 49 50 52 53 53 54 54 54 55 54 55 55 56 57 58 59 59 60 61 61 61 61
34 34 34 34 34 35 36 37 38 38 39 40 41 41 42 42 42 43 44 44 46 47 48 49 49 51 52 53 53 53 53 54 54 54 56 57 58 59 60 61 61 61 61
33 33 34 34 34 35 35 36 37 38 38 39 40 40 41 41 42 43 43 44 45 46 47 48 48 48 49 50 51 51 51 51 52 52 53 54 55 57 58 59 59 60 61
32 32 33 33 34 34 35 35 36 38 38 39 39 40 40 41 42 42 42 43 44 45 45 46 47 47 47 48 48 49 50 50 51 51 51 52 52 53 54 56 57 57 58
31 32 32 33 33 34 34 35 35 36 37 38 38 39 40 40 41 41 42 42 42 43 43 43 44 44 45 46 47 48 48 49 50 51 51 51 51 52 52 53 54 56 57
31 32 33 33 33 33 33 33 33 34 35 36 36 37 38 39 40 40 40 40 40 40 40 41 41 42 43 44 44 45 46 46 47 48 49 49 50 50 51 51 52 54 56
31 32 32 32 32 32 32 32 32 33 34 34 35 36 37 37 37 37 37 37 38 38 39 39 40 41 41 42 43 44 44 45 46 46 46 47 48 49 50 51 51 52 53
31 31 31 31 30 31 30 30 31 31 32 32 33 34 35 35 35 35 36 36 36 37 37 38 39 39 40 40 41 42 43 44 44 45 45 46 46 47 48 49 50 51 51
30 30 29 29 29 29 29 29 29 30 31 31 31 32 32 32 32 33 34 34 34 35 35 36 37 37 38 39 40 40 40 41 42 43 44 44 45 46 46 47 48 49 50
28 28 28 28 28 28 29 29 29 29 30 30 30 30 29 30 30 30 31 31 32 32 33 33 34 35 35 37 38 38 38 39 40 41 42 42 44 45 46 47 47 47 48
Wind_Direction
262 262 263 264 264 264 264 264 264 262 261 260 259 259 257 257 256 256 256 256 256 254 253 253 252 252 251 251 251 251 251 251 251 251 250 250 249 248 248 248 248 248 247
262 262 262 263 264 264 264 263 263 262 262 260 259 258 258 257 257 257 257 257 256 255 254 253 253 253 252 251 250 250 251 251 251 251 250 250 249 249 247 247 247 248 247
262 263 263 263 264 264 264 263 262 262 261 261 259 258 257 257 257 257 257 257 256 255 254 253 253 252 252 250 250 250 251 251 251 251 250 250 249 248 247 247 247 248 248
264 264 263 263 264 264 264 263 262 261 261 261 260 258 258 258 258 258 258 257 257 256 255 253 252 252 251 250 250 250 250 251 251 251 250 250 250 249 248 247 247 248 248
265 265 265 264 264 264 264 263 262 261 260 260 260 258 258 258 259 259 259 259 258 256 255 255 254 252 251 251 250 250 250 250 250 250 250 250 250 250 249 248 247 248 248
266 266 265 265 265 265 264 263 262 261 261 261 259 259 258 258 259 260 260 259 258 257 256 256 254 253 252 250 250 250 250 250 250 249 250 250 250 250 249 248 248 248 248
268 268 267 266 266 265 264 263 261 261 261 260 260 259 259 258 258 259 259 259 258 258 257 256 255 253 252 252 250 249 249 249 249 249 250 250 251 250 250 249 248 247 247
270 269 268 268 267 266 264 262 261 261 261 260 259 259 258 258 258 258 258 259 258 258 257 256 256 254 253 252 250 249 249 249 249 249 250 250 250 250 250 249 248 247 246
272 271 270 269 267 266 264 263 262 261 260 259 259 259 258 258 258 258 259 258 258 258 258 257 256 255 254 252 251 250 250 250 250 250 250 250 250 250 249 249 248 248 247
274 273 271 269 267 266 265 263 262 261 260 259 259 258 258 258 258 258 259 258 258 258 258 257 256 254 253 252 252 252 251 250 251 251 251 251 250 250 250 249 248 247 247
275 274 271 269 268 267 266 265 263 262 261 260 260 259 259 258 258 259 259 259 258 259 259 258 257 255 253 252 252 253 253 252 252 252 251 252 251 250 250 249 248 247 247
277 274 272 270 269 268 267 266 266 264 263 262 261 260 259 258 258 259 259 259 259 259 259 258 258 257 255 254 254 253 253 253 253 253 252 252 252 250 249 249 248 247 246
277 275 274 273 272 271 269 268 268 266 265 263 262 261 260 259 259 259 259 259 259 260 259 258 258 257 257 256 255 254 254 254 253 253 253 252 251 250 249 249 248 247 246
276 275 276 276 275 273 271 270 268 267 266 265 264 263 262 261 260 260 259 259 260 260 259 258 257 257 258 257 256 255 254 254 254 253 253 252 250 249 249 249 248 247 246
278 278 277 277 277 276 274 272 270 269 268 267 265 265 263 262 262 262 262 261 260 260 259 258 257 257 257 257 257 256 255 255 254 254 252 251 250 249 248 248 247 247 246
279 279 278 278 277 276 275 274 272 271 270 269 268 267 267 265 265 264 263 261 261 260 259 258 257 257 257 257 257 256 256 256 255 253 251 250 250 249 248 248 247 246 246
279 280 279 278 277 277 277 276 274 274 273 272 271 270 269 268 267 265 264 263 261 261 260 258 257 257 257 256 257 256 256 256 256 254 252 251 251 250 249 248 248 246 246
280 281 281 280 279 279 278 278 276 275 274 274 273 271 270 269 268 266 265 264 263 262 261 259 258 258 257 256 256 257 256 256 255 254 253 252 251 250 249 248 248 247 246
283 283 282 282 281 281 280 279 277 275 275 274 273 272 271 270 269 268 267 265 264 264 263 260 259 258 258 257 256 256 256 255 254 253 253 251 250 249 249 248 248 247 247
286 285 285 284 284 283 282 281 280 277 276 275 274 274 273 272 270 269 268 267 266 265 263 261 259 258 258 257 256 256 255 254 254 253 252 251 250 249 249 248 247 246 246
288 287 287 287 287 286 285 284 283 280 278 277 276 275 274 273 272 270 269 268 267 266 264 262 260 259 258 257 257 256 256 254 253 253 252 251 251 250 249 248 246 245 245
288 289 289 288 288 288 288 287 285 283 282 280 279 278 277 276 274 272 270 268 267 266 264 262 261 260 259 258 257 256 255 253 253 252 251 251 251 250 249 248 247 246 245
290 290 290 290 289 290 290 289 288 287 285 283 282 280 279 277 276 274 271 270 267 266 264 263 262 260 259 259 257 256 255 254 252 251 251 250 250 249 248 247 246 245 245
291 291 291 291 290 291 292 292 291 291 290 288 285 283 281 279 277 275 272 271 269 266 265 264 262 260 258 258 257 256 255 254 253 251 250 249 248 248 247 246 245 245 246
295 295 294 293 293 293 293 295 295 294 293 292 289 286 283 280 279 277 274 272 269 266 264 262 261 260 258 257 256 255 255 254 253 252 250 249 248 247 246 246 246 246 246
299 298 297 296 296 296 296 296 297 297 296 294 292 289 286 283 281 278 275 272 270 267 265 263 262 261 259 257 255 255 254 253 252 251 250 249 248 247 247 247 247 248 248